Regional Weather Roundup
Issued by NWS Charleston, SC

Current Version | Previous Version | Graphics & Text | Print | Product List | Glossary On
Versions: 1 2 3 4 5 6 7 8 9 10 11 12 13 14 15 16 17 18 19 20 21 22 23 24 25 26 27 28 29 30 31 32 33 34 35 36 37 38 39 40 41 42 43 44 45 46 47 48 49 50
000 ASUS42 KCHS 010013 RWRCHS REGIONAL WEATHER ROUNDUP NATIONAL WEATHER SERVICE CHARLESTON SC 800 PM EDT FRI SEP 30 2016 NOTE: "FAIR" INDICATES FEW OR NO CLOUDS BELOW 12,000 FEET WITH NO SIGNIFICANT WEATHER AND/OR OBSTRUCTIONS TO VISIBILITY. NOT ALL STATIONS ARE QUALITY CONTROLLED. USE DATA WITH CAUTION... ESPECIALLY DEWPOINT OBSERVATIONS. SCZ027-030-031-034>040-042>050-010100- ...SOUTHEAST SOUTH CAROLINA... CITY SKY/WX TMP DP RH WIND PRES REMARKS N CHARLESTON PTCLDY 74 66 76 S7 29.98R 6HR MIN TEMP: 74; 6HR MAX TEMP: 88; WATERFRONT PRK N/A 79 69 71 S5 29.96R MOUNT PLEASANT FAIR 72 66 83 CALM 29.98S JOHNS ISLAND FAIR 75 68 78 CALM 29.98S PINOPOLIS N/A 81 68 65 W6 29.91R MONCKS CORNER FAIR 70 64 83 CALM 29.98R SUMMERVILLE NOT AVBL BEAUFORT MCAS CLEAR 77 64 64 W3 29.99R 6HR MIN TEMP: 76; 6HR MAX TEMP: 88; BEAUFORT ARPT FAIR 73 66 78 CALM 29.98R HILTON HEAD IS CLEAR 73 66 78 CALM 29.99R WALTERBORO CLEAR 72 68 88 CALM 30.00R ALLENDALE FAIR 68 59 73 CALM 29.98S ...SOUTHERN MIDLANDS AND PEE DEE... CITY SKY/WX TMP DP RH WIND PRES REMARKS GEORGETOWN FAIR 70 68 94 CALM 29.99R KINGSTREE FAIR 72 61 68 CALM 29.98R ORANGEBURG CLEAR 66 56 70 CALM 29.99R 6HR MIN TEMP: 66; 6HR MAX TEMP: 83; BARNWELL NOT AVBL AIKEN FAIR 64 50 59 SW3 30.03R MANNING FAIR 70 59 68 CALM 29.98S COLUMBIA PTCLDY 71 53 52 CALM 29.99R 6HR MIN TEMP: 71; 6HR MAX TEMP: 85; SUMTER CLEAR 71 57 60 W6 29.97R 6HR MIN TEMP: 71; 6HR MAX TEMP: 85; FLORENCE CLEAR 75 62 64 W3 29.98R 6HR MIN TEMP: 75; 6HR MAX TEMP: 87; MYRTLE BEACH CLEAR 81 63 54 S12 29.99R N MYRTLE BEACH PTCLDY 80 70 71 SW9 29.97S 6HR MIN TEMP: 80; 6HR MAX TEMP: 85; $$ GAZ063-065-086>088-099>101-113>116-118-119-134>141-150-010100- ...SOUTHEAST GEORGIA... CITY SKY/WX TMP DP RH WIND PRES REMARKS SAVANNAH ARPT PTCLDY 74 59 59 CALM 29.99R 6HR MIN TEMP: 74; 6HR MAX TEMP: 86; HUNTER AAF CLEAR 76 70 81 S3 29.96R 6HR MIN TEMP: 76; 6HR MAX TEMP: 87; FORT STEWART CLEAR 71 60 68 CALM 29.97R 6HR MIN TEMP: 71; 6HR MAX TEMP: 86; STATESBORO CLEAR 66 62 87 CALM 29.99S SYLVANIA NOT AVBL CLAXTON FAIR 67 61 79 CALM 29.99S ...CSRA...CENTRAL AND FAR SOUTHEAST GEORGIA... CITY SKY/WX TMP DP RH WIND PRES REMARKS THOMSON CLEAR 70 53 55 CALM 30.05R AUGUSTA-BUSH CLEAR 66 54 65 CALM 29.99R 6HR MIN TEMP: 66; 6HR MAX TEMP: 82; AUGUSTA-DANIEL CLEAR 75 45 34 CALM 30.00R SWAINSBORO FAIR 68 54 60 CALM 30.01S VIDALIA CLEAR 72 59 64 CALM 30.00S EASTMAN FAIR 67 45 44 CALM 30.03R HAZLEHURST FAIR 69 55 59 CALM 29.99S ALMA CLEAR 66 56 70 CALM 29.99S 6HR MIN TEMP: 65; 6HR MAX TEMP: 84; WAYCROSS CLEAR 75 58 54 CALM 29.99R JESUP FAIR 73 61 64 CALM 29.99R BAXLEY FAIR 70 59 68 CALM 29.99S BRUNSWICK CLEAR 72 66 83 CALM 29.99R SAINT SIMONS CLEAR 79 67 66 SE3 29.98R 6HR MIN TEMP: 79; 6HR MAX TEMP: 86; $$ SCZ027-028-034-036>038-045-046-048>050-GAZ119-141-010100- ...LAKE AND SUPPLEMENTAL COASTAL OBSERVATIONS... STATION/POSITION TIME TEMP WIND PRES WAVE SWELL AIR SEA DIR/SP/G HT/PER HT/PER/DIR (UTC) (F) (DEG/KT/KT) (MB) (FT/S) (FT/S/D) WINYAH BAY NOT AVBL LAKE MURRAY 2320 78 250/ 6/ 10 1014.6R ACE BASIN NERRS 2245 79 CALM 1015.0 FORT PULASKI 2348 150/ 2/ 3 1015.6R SAPELO ISLAND 2300 81 110/ 4 1015.0 $$ ANZ835-935-AMZ111-154-330-350-352-354-370-450-454-472-010100- ...C-MAN AND BUOY OBSERVATIONS... STATION/POSITION TIME TEMP WIND PRES WAVE SWELL AIR SEA DIR/SP/G HT/PER HT/PER/DIR (UTC) (F) (DEG/KT/KT) (MB) (FT/S) (FT/S/D) BUOY 41004 2350 81 82 210/ 10/ 12 1014.6S 2/ 5 2/180/ 5 BUOY 41008 2350 80 83 130/ 8/ 10 1015.1R 2/ 5 2/140/ 5 FOLLY BEACH CMAN 0000 80 220/ 7/ 8 1015.4R CAPERS NEARSHORE 2308 81 81 230/ 10/ 12 1014.7R FRIPP NEARSHORE 2308 80 82 180/ 10/ 14 1014.9R STATION/POSITION TIME TEMP WIND PRES WAVE SWELL AIR SEA DIR/SP/G HT/PER HT/PER/DIR (UTC) (F) (DEG/KT/KT) (MB) (FT/S) (FT/S/D) 5E ST. MARYS GA 2301 84 N/A 1/ 9 FRYING PAN BUOY 2350 81 82 190/ 10/ 12 1015.5R 5/ 6 3/180/ 6 BUOY 41025 2350 79 76 150/ 12/ 14 1017.1F 5/11 3/ 30/11 CAPE LOOKOUT NC 0000 78 130/ 14/ 15 1016.2R BUOY 41002 2350 82 83 160/ 10/ 14 1018.3R 4/ 9 3/ 10/ 9 BUOY 41010 NOT AVBL ST AUGUSTINE FL 0000 82 84 130/ 11/ 12 1016.2R $$

USA.gov is the U.S. government's official web portal to all federal, state and local government web resources and services.